YAOGAN-10 (36834 NORAD) Tracking and Keplerian Element Data

This shows tracking and keplerian element data for the satellite.

Feedback or suggestion? Click here.




ElementValue
Catalog36834
NameYAOGAN-10
Epoch Orbit78341
Epoch Day35.31828076
Epoch Year2025
RAAN57.138
Inclination97.9367
Eccentricity0.0001297
Argument of Perigee87.3573
Mean Anonmoly2.9198
Mean Motion14.83828335
Decay Rate1.735E-05
L11 36834U 10038A 25035.31828076 .00001735 00000+0 21575-3 0 9994
L22 36834 97.9367 57.1380 0001297 87.3573 2.9198 14.83828335783410



Live tracking and technical data element details for YAOGAN-10 (NORAD 36834). YAOGAN-10 can be tracked NOW for your location showing map with azimuth and elevation plus other details from your city location.







IsCatalogInMostPopularTable: catalog: 36834, numindb: 280
Update: records affected: 1



GetName: 36834 YAOGAN-10

Hit Count: updated at: Thu, 22 May 2025 04:28:14 GMT